{"data":{"norad_id":54661,"intl_designator":"2022-166V","name":"ONEWEB-0595","alt_names":[],"object_type":"PAYLOAD","status":"ACTIVE","operator":null,"country":"UK","launch_date":"2022-12-08","launch_site_code":"AFETR","launch_vehicle":null,"mission":null,"orbit_class":"UNKNOWN","rcs_meters":null,"size_class":null,"mass_kg":null,"dimensions":null,"purposes":["comms"],"wikipedia_slug":null,"has_3d_model":false,"image_url":null,"decayed_at":null,"tle_current":{"epoch":"2026-09-20T04:17:45.619008Z","epoch_age_seconds":49784,"freshness":"FRESH","line1":"1 54661U 22166V   26263.17900022  .00000036  00000+0  56072-4 0  9991","line2":"2 54661  87.9287 225.0707 0001843  78.3251 281.8090 13.21826740184083","mean_motion":13.2182674,"eccentricity":0.0001843,"inclination_deg":87.9287,"raan_deg":225.0707,"arg_perigee_deg":78.3251,"mean_anomaly_deg":281.809,"bstar":5.6072e-5,"rev_number":18408,"period_min":108.94014748105,"perigee_km":1176.3579982764,"apogee_km":1179.1430984267,"semimajor_km":7555.8875483516,"source":"CELESTRAK","updated_at":"2026-09-20T09:00:44.745033Z"}}}